Date String (YYYY-MM-DD hh:mm:ss) UTC,Instrument flags,Ambient pressure (hPa),Sample flow (lpm),Bypass flow (lpm),Sample temperature (°C),Ambient temperature (°C),ASC tube jacket temperature (°C),LED temperature (°C),Box temperature (°C),Sample RH (%),Span deviation,Mass concentration (μg/m³),Mass concentration (μg/m³),Mass concentration (μg/m³)
DateTimeUTC,F1_M11,P_M11,Q1_M11,Q2_M11,T1_M11,T2_M11,T3_M11,T4_M11,T5_M11,U1_M11,ZSPAN_M11,X0_M11,X2_M11,X1_M11
2022-01-27 17:00:00,,0834.4,4.99,0.00,22.2,22.3,00.0,31.0,23.9,12.5,0000.0,0012.43,0007.15,0006.82
2022-01-27 17:01:00,,0834.4,5.00,0.00,22.1,22.1,00.0,31.0,23.9,12.5,0000.0,0012.38,0007.11,0006.80
2022-01-27 17:02:00,,0834.4,5.00,0.00,22.1,21.9,00.0,31.0,23.9,12.6,0000.0,0012.41,0007.08,0006.78
2022-01-27 17:03:00,,0834.5,5.00,0.00,22.1,21.8,00.0,31.0,23.8,12.6,0000.0,0011.70,0007.05,0006.75
2022-01-27 17:04:00,,0834.5,5.00,0.00,22.1,21.7,00.0,31.0,23.8,12.7,0000.0,0011.06,0007.01,0006.71
2022-01-27 17:05:00,,0834.5,4.99,0.00,22.1,21.6,00.0,31.0,23.8,12.8,0000.0,0011.16,0006.97,0006.66
2022-01-27 17:06:00,,0834.6,5.00,0.00,22.1,21.6,00.0,31.0,23.8,12.8,0000.0,0011.23,0006.87,0006.59
2022-01-27 17:07:00,,0834.6,5.00,0.00,22.0,21.5,00.0,31.0,23.7,12.8,0000.0,0011.20,0006.83,0006.53
2022-01-27 17:08:00,,0834.6,5.00,0.00,22.0,21.5,00.0,31.0,23.7,12.9,0000.0,0010.72,0006.78,0006.46
2022-01-27 17:09:00,,0834.6,5.01,0.00,22.0,21.5,00.0,31.0,23.7,12.9,0000.0,0010.52,0006.72,0006.40
2022-01-27 17:10:00,,0834.6,5.01,0.00,22.0,21.4,00.0,31.0,23.7,13.0,0000.0,0010.55,0006.71,0006.36
2022-01-27 17:11:00,,0834.6,5.00,0.00,22.0,21.4,00.0,31.0,23.7,13.0,0000.0,0010.56,0006.66,0006.30
2022-01-27 17:12:00,,0834.6,5.00,0.00,22.0,21.4,00.0,31.0,23.7,13.1,0000.0,0010.56,0006.62,0006.24
2022-01-27 17:13:00,,0834.6,5.00,0.00,22.0,21.4,00.0,31.0,23.7,13.1,0000.0,0010.36,0006.53,0006.19
2022-01-27 17:14:00,,0834.7,4.99,0.00,22.0,21.4,00.0,31.0,23.7,13.2,0000.0,0010.31,0006.49,0006.15
2022-01-27 17:15:00,,0834.7,5.00,0.00,21.9,21.4,00.0,31.0,23.7,13.2,0000.0,0010.15,0006.43,0006.10
2022-01-27 17:25:00,,0834.9,5.00,0.00,22.4,22.6,00.0,31.1,24.2,13.3,0000.0,0010.56,0006.19,0005.89
2022-01-27 17:26:00,,0834.9,4.99,0.00,22.4,22.5,00.0,31.1,24.2,13.3,0000.0,0010.77,0006.16,0005.88
2022-01-27 17:27:00,,0835.0,5.01,0.00,22.4,22.3,00.0,31.1,24.2,13.3,0000.0,0010.75,0006.14,0005.88
2022-01-27 17:28:00,,0835.0,5.00,0.00,22.4,22.2,00.0,31.2,24.1,13.3,0000.0,0010.72,0006.13,0005.87
2022-01-27 17:29:00,,0834.9,5.00,0.00,22.3,22.1,00.0,31.2,24.1,13.3,0000.0,0010.09,0006.10,0005.84
2022-01-27 17:30:00,,0834.9,5.01,0.00,22.3,22.0,00.0,31.2,24.1,13.3,0000.0,0009.84,0006.05,0005.80
2022-01-27 17:31:00,,0834.9,5.00,0.00,22.3,21.9,00.0,31.2,24.1,13.3,0000.0,0009.51,0005.98,0005.75
2022-01-27 17:32:00,,0835.0,5.01,0.00,22.3,21.8,00.0,31.2,24.0,13.2,0000.0,0009.30,0005.93,0005.72
2022-01-27 17:33:00,,0834.9,4.98,0.00,22.3,21.8,00.0,31.2,24.0,13.2,0000.0,0009.20,0005.85,0005.67
2022-01-27 17:34:00,,0835.0,5.00,0.00,22.2,21.7,00.0,31.2,24.0,13.2,0000.0,0009.14,0005.78,0005.60
2022-01-27 17:35:00,,0835.0,5.00,0.00,22.2,21.7,00.0,31.2,24.0,13.2,0000.0,0009.00,0005.69,0005.53
2022-01-27 17:36:00,,0835.0,5.01,0.00,22.2,21.7,00.0,31.2,24.0,13.2,0000.0,0008.67,0005.60,0005.45
2022-01-27 17:37:00,,0834.9,5.00,0.00,22.2,21.6,00.0,31.2,23.9,13.2,0000.0,0008.17,0005.52,0005.38
2022-01-27 17:38:00,,0834.9,5.01,0.00,22.2,21.6,00.0,31.2,23.9,13.2,0000.0,0008.11,0005.45,0005.30
2022-01-27 17:39:00,,0835.0,5.00,0.00,22.2,21.6,00.0,31.2,23.9,13.2,0000.0,0008.03,0005.39,0005.23
2022-01-27 17:40:00,,0835.0,5.00,0.00,22.2,21.6,00.0,31.2,23.9,13.3,0000.0,0007.95,0005.34,0005.19
2022-01-27 17:41:00,,0835.0,5.00,0.00,22.2,21.5,00.0,31.2,23.9,13.3,0000.0,0007.91,0005.27,0005.13
2022-01-27 17:42:00,,0834.9,5.00,0.00,22.2,21.5,00.0,31.1,23.9,13.2,0000.0,0007.98,0005.18,0005.04
2022-01-27 17:43:00,,0835.0,5.01,0.00,22.1,21.5,00.0,31.1,23.9,13.2,0000.0,0007.90,0005.09,0004.93
2022-01-27 17:44:00,,0834.9,5.00,0.00,22.1,21.5,00.0,31.1,23.8,13.2,0000.0,0007.74,0004.97,0004.82
2022-01-27 17:45:00,,0835.0,5.00,0.00,22.1,21.5,00.0,31.1,23.8,13.2,0000.0,0007.55,0004.83,0004.69
2022-01-27 17:46:00,,0834.9,4.98,0.00,22.1,21.5,00.0,31.1,23.8,13.2,0000.0,0007.40,0004.69,0004.54
2022-01-27 17:47:00,,0834.9,5.00,0.00,22.1,21.5,00.0,31.1,23.8,13.2,0000.0,0007.25,0004.58,0004.42
2022-01-27 17:48:00,,0834.9,5.01,0.00,22.1,21.4,00.0,31.1,23.8,13.2,0000.0,0007.47,0004.44,0004.28
2022-01-27 17:49:00,,0834.9,4.99,0.00,22.1,21.4,00.0,31.1,23.8,13.2,0000.0,0007.55,0004.32,0004.14
2022-01-27 17:50:00,,0834.9,5.00,0.00,22.1,21.4,00.0,31.1,23.8,13.2,0000.0,0007.39,0004.18,0004.01
2022-01-27 17:51:00,,0835.0,4.99,0.00,22.1,21.6,00.0,31.1,23.8,13.2,0000.0,0007.19,0004.05,0003.87
2022-01-27 17:52:00,,0834.9,5.02,0.00,22.2,22.3,00.0,31.1,24.0,13.2,0000.0,0006.91,0003.94,0003.75
2022-01-27 17:53:00,,0835.0,5.01,0.00,22.3,23.1,00.0,31.2,24.3,13.1,0000.0,0006.38,0003.83,0003.65
2022-01-27 17:54:00,,0835.0,4.98,0.00,22.4,23.2,00.0,31.2,24.4,13.0,0000.0,0006.18,0003.70,0003.55
2022-01-27 17:55:00,,0835.0,5.00,0.00,22.5,23.0,00.0,31.2,24.4,13.0,0000.0,0006.06,0003.64,0003.48
2022-01-27 17:56:00,,0835.0,5.00,0.00,22.5,22.8,00.0,31.2,24.4,13.1,0000.0,0006.12,0003.61,0003.45
2022-01-27 17:57:00,,0835.0,5.01,0.00,22.5,22.6,00.0,31.3,24.3,13.2,0000.0,0006.08,0003.59,0003.43
2022-01-27 17:58:00,,0835.0,4.99,0.00,22.5,22.4,00.0,31.3,24.3,13.2,0000.0,0005.93,0003.54,0003.40
2022-01-27 17:59:00,,0835.0,5.00,0.00,22.5,22.3,00.0,31.3,24.2,13.2,0000.0,0005.58,0003.52,0003.38
